Time,TemperatureF,DewpointF,PressureIn,WindDirection,WindDirectionDegrees,WindSpeedMPH,WindSpeedGustMPH,Humidity,HourlyPrecipIn,Conditions,Clouds,dailyrainin,SoftwareType,DateUTC
2013-07-05 00:10:00,73.0,59.0,29.97,South,176,5.0,8.0,62,0.00,,,0.00,,2013-07-05 05:10:00,
2013-07-05 00:33:00,73.0,59.0,29.97,South,176,5.0,8.0,62,0.00,,,0.00,,2013-07-05 05:33:00,
2013-07-05 00:43:00,73.0,59.0,29.97,South,176,5.0,8.0,62,0.00,,,0.00,,2013-07-05 05:43:00,
2013-07-05 00:52:00,73.0,59.0,29.97,South,176,5.0,8.0,62,0.00,,,0.00,,2013-07-05 05:52:00,
2013-07-05 01:02:00,73.0,59.0,29.97,South,176,5.0,8.0,62,0.00,,,0.00,,2013-07-05 06:02:00,
2013-07-05 02:02:00,70.0,59.0,29.96,SSE,162,1.0,7.0,68,0.00,,,0.00,,2013-07-05 07:02:00,
2013-07-05 02:23:00,70.0,59.0,29.96,SSE,162,1.0,7.0,68,0.00,,,0.00,,2013-07-05 07:23:00,
2013-07-05 02:34:00,70.0,59.0,29.96,SSE,162,1.0,7.0,68,0.00,,,0.00,,2013-07-05 07:34:00,
2013-07-05 02:43:00,70.0,59.0,29.96,SSE,162,1.0,7.0,68,0.00,,,0.00,,2013-07-05 07:43:00,
2013-07-05 02:53:00,70.0,59.0,29.96,SSE,162,1.0,7.0,68,0.00,,,0.00,,2013-07-05 07:53:00,
2013-07-05 04:02:00,67.0,59.0,29.96,SSE,160,0.0,3.0,75,0.00,,,0.00,,2013-07-05 09:02:00,
2013-07-05 04:28:00,67.0,59.0,29.96,SSE,160,0.0,3.0,75,0.00,,,0.00,,2013-07-05 09:28:00,
2013-07-05 04:37:00,67.0,59.0,29.96,SSE,160,0.0,3.0,75,0.00,,,0.00,,2013-07-05 09:37:00,
2013-07-05 04:48:00,67.0,59.0,29.96,SSE,160,0.0,3.0,75,0.00,,,0.00,,2013-07-05 09:48:00,
2013-07-05 04:56:00,67.0,59.0,29.96,SSE,160,0.0,3.0,75,0.00,,,0.00,,2013-07-05 09:56:00,
2013-07-05 06:02:00,65.0,59.0,29.98,SE,141,2.0,4.0,80,0.00,,,0.00,,2013-07-05 11:02:00,
2013-07-05 06:25:00,65.0,59.0,29.98,SE,141,2.0,4.0,80,0.00,,,0.00,,2013-07-05 11:25:00,
2013-07-05 06:38:00,65.0,59.0,29.98,SE,141,2.0,4.0,80,0.00,,,0.00,,2013-07-05 11:38:00,
2013-07-05 07:00:00,65.0,59.0,29.98,SE,141,2.0,4.0,80,0.00,,,0.00,,2013-07-05 12:00:00,
2013-07-05 08:02:00,70.0,59.0,29.99,SSE,160,3.0,6.0,69,0.00,,,0.00,,2013-07-05 13:02:00,
2013-07-05 08:26:00,70.0,59.0,29.99,SSE,160,3.0,6.0,69,0.00,,,0.00,,2013-07-05 13:26:00,
2013-07-05 08:49:00,70.0,59.0,29.99,SSE,160,3.0,6.0,69,0.00,,,0.00,,2013-07-05 13:49:00,
2013-07-05 08:58:00,70.0,59.0,29.99,SSE,160,3.0,6.0,69,0.00,,,0.00,,2013-07-05 13:58:00,
2013-07-05 10:02:00,80.0,61.0,29.98,South,187,6.0,9.0,53,0.00,,,0.00,,2013-07-05 15:02:00,
2013-07-05 10:25:00,80.0,61.0,29.98,South,187,6.0,9.0,53,0.00,,,0.00,,2013-07-05 15:25:00,
2013-07-05 10:34:00,80.0,61.0,29.98,South,187,6.0,9.0,53,0.00,,,0.00,,2013-07-05 15:34:00,
2013-07-05 10:43:00,80.0,61.0,29.98,South,187,6.0,9.0,53,0.00,,,0.00,,2013-07-05 15:43:00,
2013-07-05 10:53:00,80.0,61.0,29.98,South,187,6.0,9.0,53,0.00,,,0.00,,2013-07-05 15:53:00,
2013-07-05 12:22:00,86.0,62.0,29.97,WSW,255,4.0,8.0,44,0.00,,,0.00,,2013-07-05 17:22:00,
2013-07-05 12:33:00,86.0,62.0,29.97,WSW,255,4.0,8.0,44,0.00,,,0.00,,2013-07-05 17:33:00,
2013-07-05 12:43:00,86.0,62.0,29.97,WSW,255,4.0,8.0,44,0.00,,,0.00,,2013-07-05 17:43:00,
2013-07-05 12:53:00,86.0,62.0,29.97,WSW,255,4.0,8.0,44,0.00,,,0.00,,2013-07-05 17:53:00,
2013-07-05 13:01:00,86.0,62.0,29.97,WSW,255,4.0,8.0,44,0.00,,,0.00,,2013-07-05 18:01:00,
2013-07-05 14:22:00,89.0,61.0,29.95,SSE,150,6.0,12.0,40,0.00,,,0.00,,2013-07-05 19:22:00,
2013-07-05 14:34:00,89.0,61.0,29.95,SSE,150,6.0,12.0,40,0.00,,,0.00,,2013-07-05 19:34:00,
2013-07-05 14:43:00,89.0,61.0,29.95,SSE,150,6.0,12.0,40,0.00,,,0.00,,2013-07-05 19:43:00,
2013-07-05 14:53:00,89.0,61.0,29.95,SSE,150,6.0,12.0,40,0.00,,,0.00,,2013-07-05 19:53:00,
2013-07-05 15:02:00,89.0,61.0,29.95,SSE,150,6.0,12.0,40,0.00,,,0.00,,2013-07-05 20:02:00,
2013-07-05 16:22:00,90.0,60.0,29.92,SE,146,9.0,14.0,37,0.00,,,0.00,,2013-07-05 21:22:00,
2013-07-05 16:34:00,90.0,60.0,29.92,SE,146,9.0,14.0,37,0.00,,,0.00,,2013-07-05 21:34:00,
2013-07-05 16:43:00,90.0,60.0,29.92,SE,146,9.0,14.0,37,0.00,,,0.00,,2013-07-05 21:43:00,
2013-07-05 16:53:00,90.0,60.0,29.92,SE,146,9.0,14.0,37,0.00,,,0.00,,2013-07-05 21:53:00,
2013-07-05 17:01:00,90.0,60.0,29.92,SE,146,9.0,14.0,37,0.00,,,0.00,,2013-07-05 22:01:00,
2013-07-05 18:23:00,89.0,60.0,29.89,SSE,152,8.0,17.0,38,0.00,,,0.00,,2013-07-05 23:23:00,
2013-07-05 18:32:00,89.0,60.0,29.89,SSE,152,8.0,17.0,38,0.00,,,0.00,,2013-07-05 23:32:00,
2013-07-05 18:43:00,89.0,60.0,29.89,SSE,152,8.0,17.0,38,0.00,,,0.00,,2013-07-05 23:43:00,
2013-07-05 18:53:00,89.0,60.0,29.89,SSE,152,8.0,17.0,38,0.00,,,0.00,,2013-07-05 23:53:00,
2013-07-05 19:01:00,89.0,60.0,29.89,SSE,152,8.0,17.0,38,0.00,,,0.00,,2013-07-06 00:01:00,
2013-07-05 20:22:00,86.0,62.0,29.89,South,191,5.0,11.0,44,0.00,,,0.00,,2013-07-06 01:22:00,
2013-07-05 20:33:00,86.0,62.0,29.89,South,191,5.0,11.0,44,0.00,,,0.00,,2013-07-06 01:33:00,
2013-07-05 20:43:00,86.0,62.0,29.89,South,191,5.0,11.0,44,0.00,,,0.00,,2013-07-06 01:43:00,
2013-07-05 20:53:00,86.0,62.0,29.89,South,191,5.0,11.0,44,0.00,,,0.00,,2013-07-06 01:53:00,
2013-07-05 21:02:00,86.0,62.0,29.89,South,191,5.0,11.0,44,0.00,,,0.00,,2013-07-06 02:02:00,
2013-07-05 22:22:00,79.0,60.0,29.92,SSE,148,5.0,9.0,53,0.00,,,0.00,,2013-07-06 03:22:00,
2013-07-05 22:34:00,79.0,60.0,29.92,SSE,148,5.0,9.0,53,0.00,,,0.00,,2013-07-06 03:34:00,
2013-07-05 22:43:00,79.0,60.0,29.92,SSE,148,5.0,9.0,53,0.00,,,0.00,,2013-07-06 03:43:00,
2013-07-05 22:53:00,79.0,60.0,29.92,SSE,148,5.0,9.0,53,0.00,,,0.00,,2013-07-06 03:53:00,
2013-07-05 23:02:00,79.0,60.0,29.92,SSE,148,5.0,9.0,53,0.00,,,0.00,,2013-07-06 04:02:00,